| time (UTC) | temp C | wind direction | speed KPH | gust KPH | rain 1hr cm | rain 24hr cm | rain mn cm | humidity % | barometer mb |
| 20260506005005 | 0 | 162 | 0.0 | 1.6 | 3.56 | 8.56 | 10.11 | 77 | 1007.6 |
| 20260506004505 | 0 | 166 | 0.0 | 1.6 | 3.56 | 8.56 | 9.80 | 77 | 1007.5 |
| 20260506004004 | 0 | 166 | 0.0 | 1.6 | 3.56 | 8.56 | 9.50 | 76 | 1007.5 |
| 20260506003504 | 0 | 163 | 0.0 | 1.6 | 3.56 | 8.53 | 9.19 | 77 | 1007.5 |
| 20260506003005 | 0 | 60 | 0.0 | 1.6 | 3.61 | 8.56 | 8.94 | 77 | 1007.5 |
| 20260506002505 | 0 | 163 | 0.0 | 1.6 | 3.56 | 8.53 | 8.59 | 77 | 1007.5 |
| 20260506002004 | 0 | 163 | 0.0 | 1.6 | 3.56 | 8.56 | 8.33 | 77 | 1007.5 |
| 20260506001504 | 0 | 159 | 0.0 | 1.6 | 3.56 | 8.56 | 8.03 | 77 | 1007.5 |
| 20260506001004 | 0 | 164 | 0.0 | 1.6 | 3.56 | 8.56 | 7.72 | 76 | 1007.5 |
| 20260506000504 | 0 | 166 | 0.0 | 4.8 | 3.56 | 8.53 | 7.42 | 76 | 1007.6 |
| 20260506000005 | 0 | 82 | 1.6 | 4.8 | 3.56 | 8.53 | 7.11 | 76 | 1007.5 |
| 20260505234504 | 0 | 166 | 0.0 | 1.6 | 3.56 | 8.56 | 6.25 | 75 | 1007.4 |
| 20260505234006 | 1 | 164 | 0.0 | 1.6 | 3.56 | 8.56 | 5.94 | 75 | 1007.4 |
| 20260505233504 | 1 | 163 | 0.0 | 1.6 | 3.56 | 8.56 | 5.64 | 74 | 1007.4 |
| 20260505233004 | 1 | 164 | 0.0 | 1.6 | 3.56 | 8.56 | 5.33 | 75 | 1007.4 |
| 20260505232506 | 1 | 165 | 0.0 | 1.6 | 3.56 | 8.53 | 5.03 | 75 | 1007.5 |
| 20260505231504 | 1 | 161 | 0.0 | 1.6 | 3.61 | 8.56 | 4.47 | 75 | 1007.5 |
| 20260505231006 | 1 | 160 | 0.0 | 1.6 | 3.56 | 8.56 | 4.17 | 75 | 1007.4 |
| 20260505230504 | 1 | 167 | 0.0 | 1.6 | 3.56 | 8.56 | 3.86 | 76 | 1007.4 |
| 20260505230005 | 1 | 162 | 0.0 | 1.6 | 3.56 | 8.56 | 3.56 | 76 | 1007.5 |
| 20260505225504 | 1 | 165 | 0.0 | 1.6 | 3.56 | 8.56 | 3.25 | 76 | 1007.5 |
| 20260505224004 | 2 | 165 | 0.0 | 3.2 | 3.61 | 8.56 | 2.39 | 78 | 1007.6 |
| 20260505223005 | 2 | 165 | 1.6 | 4.8 | 3.56 | 8.56 | 1.78 | 78 | 1007.5 |
| 20260505222006 | 2 | 174 | 0.0 | 3.2 | 3.56 | 8.53 | 1.17 | 78 | 1007.5 |
| 20260505221504 | 2 | 174 | 0.0 | 1.6 | 3.56 | 8.53 | 0.86 | 77 | 1007.4 |
| 20260505221004 | 2 | 173 | 0.0 | 1.6 | 3.61 | 8.56 | 0.61 | 77 | 1007.4 |
| 20260505220505 | 2 | 170 | 0.0 | 1.6 | 3.61 | 8.56 | 0.30 | 77 | 1007.4 |
| 20260505220004 | 2 | 175 | 0.0 | 1.6 | 3.56 | 8.56 | 0.00 | 77 | 1007.4 |
| 20260505215504 | 3 | 172 | 0.0 | 1.6 | 3.56 | 8.56 | 8.53 | 76 | 1007.3 |
| 20260505215005 | 3 | 163 | 0.0 | 1.6 | 3.56 | 8.56 | 8.48 | 76 | 1007.2 |
| 20260505214505 | 3 | 175 | 0.0 | 1.6 | 3.56 | 8.53 | 8.46 | 76 | 1007.2 |
| 20260505214004 | 3 | 174 | 0.0 | 1.6 | 3.61 | 8.56 | 8.43 | 75 | 1007.2 |
| 20260505212504 | 4 | 168 | 0.0 | 1.6 | 3.56 | 8.56 | 8.36 | 73 | 1007.1 |
| 20260505212005 | 4 | 164 | 0.0 | 1.6 | 3.56 | 8.56 | 8.31 | 72 | 1007.2 |
| 20260505211504 | 4 | 166 | 0.0 | 1.6 | 3.56 | 8.56 | 8.28 | 71 | 1007.2 |
| 20260505211004 | 5 | 175 | 0.0 | 1.6 | 3.56 | 8.53 | 8.26 | 71 | 1007.3 |
| 20260505210004 | 5 | 174 | 0.0 | 1.6 | 3.61 | 8.56 | 8.20 | 71 | 1007.2 |
| 20260505205504 | 5 | 172 | 0.0 | 1.6 | 3.56 | 8.56 | 8.18 | 70 | 1007.0 |
| 20260505205004 | 5 | 172 | 0.0 | 1.6 | 3.56 | 8.56 | 8.13 | 70 | 1007.0 |
| 20260505204504 | 5 | 176 | 0.0 | 1.6 | 3.56 | 8.56 | 8.10 | 70 | 1007.0 |
| 20260505204005 | 5 | 172 | 0.0 | 1.6 | 3.56 | 8.56 | 8.08 | 69 | 1007.0 |
| 20260505203504 | 5 | 175 | 0.0 | 1.6 | 3.56 | 8.53 | 8.05 | 69 | 1007.0 |
| 20260505203004 | 5 | 169 | 0.0 | 1.6 | 3.61 | 8.56 | 8.03 | 68 | 1007.0 |
| 20260505202504 | 6 | 173 | 0.0 | 1.6 | 3.61 | 8.56 | 8.00 | 68 | 1006.8 |
| 20260505202005 | 6 | 175 | 0.0 | 1.6 | 3.56 | 8.56 | 7.95 | 68 | 1006.9 |
| 20260505201504 | 6 | 173 | 0.0 | 1.6 | 3.56 | 8.56 | 7.92 | 67 | 1006.9 |
| 20260505201004 | 6 | 171 | 0.0 | 3.2 | 3.56 | 8.56 | 7.90 | 67 | 1006.8 |
| 20260505200505 | 6 | 170 | 0.0 | 3.2 | 3.56 | 8.56 | 7.87 | 66 | 1006.7 |
| 20260505200004 | 6 | 173 | 1.6 | 3.2 | 3.56 | 8.53 | 7.85 | 66 | 1006.7 |
| 20260505195504 | 6 | 174 | 0.0 | 1.6 | 3.61 | 8.56 | 7.82 | 66 | 1006.7 |
| 20260505195005 | 6 | 168 | 0.0 | 3.2 | 3.61 | 8.56 | 7.77 | 65 | 1006.6 |
| 20260505194504 | 6 | 168 | 1.6 | 3.2 | 3.56 | 8.56 | 7.75 | 65 | 1006.7 |
| 20260505194004 | 6 | 171 | 0.0 | 3.2 | 3.56 | 8.56 | 7.72 | 65 | 1006.7 |
| 20260505193504 | 6 | 172 | 1.6 | 4.8 | 3.56 | 8.56 | 7.70 | 64 | 1006.6 |
| 20260505192006 | 7 | 222 | 1.6 | 9.7 | 3.61 | 8.56 | 7.59 | 64 | 1006.3 |
| 20260505191503 | 7 | 213 | 3.2 | 9.7 | 3.56 | 8.56 | 7.57 | 64 | 1006.2 |
| 20260505191004 | 7 | 197 | 3.2 | 8.0 | 3.56 | 8.56 | 7.54 | 64 | 1006.3 |
| 20260505190504 | 7 | 180 | 3.2 | 9.7 | 3.56 | 8.56 | 7.52 | 63 | 1006.1 |
| 20260505190005 | 7 | 179 | 3.2 | 9.7 | 3.56 | 8.56 | 7.49 | 63 | 1006.1 |
| 20260505185504 | 7 | 218 | 3.2 | 8.0 | 3.56 | 8.53 | 7.44 | 62 | 1006.2 |
| 20260505185005 | 7 | 193 | 3.2 | 8.0 | 3.56 | 8.53 | 7.42 | 62 | 1006.2 |
| 20260505184505 | 7 | 199 | 1.6 | 4.8 | 3.61 | 8.56 | 7.39 | 62 | 1006.1 |
| 20260505184004 | 7 | 191 | 3.2 | 12.9 | 3.56 | 8.56 | 7.37 | 61 | 1006.1 |
| 20260505183505 | 7 | 201 | 1.6 | 12.9 | 3.56 | 8.56 | 7.34 | 61 | 1006.0 |
| 20260505183005 | 7 | 190 | 4.8 | 12.9 | 3.56 | 8.56 | 7.32 | 60 | 1005.9 |
| 20260505182504 | 7 | 207 | 3.2 | 9.7 | 3.56 | 8.56 | 7.26 | 60 | 1006.0 |
| 20260505182004 | 7 | 214 | 3.2 | 11.3 | 3.56 | 8.53 | 7.24 | 60 | 1006.0 |
| 20260505181504 | 7 | 210 | 3.2 | 11.3 | 3.61 | 8.56 | 7.21 | 59 | 1006.0 |
| 20260505181004 | 7 | 199 | 3.2 | 12.9 | 3.61 | 8.56 | 7.19 | 58 | 1005.9 |
| 20260505180505 | 8 | 213 | 4.8 | 12.9 | 3.56 | 8.56 | 7.16 | 57 | 1006.0 |
| 20260505180004 | 8 | 204 | 4.8 | 12.9 | 3.56 | 8.56 | 7.14 | 56 | 1005.9 |
| 20260505175504 | 8 | 207 | 3.2 | 12.9 | 3.56 | 8.56 | 7.09 | 55 | 1005.9 |
| 20260505175004 | 8 | 210 | 4.8 | 14.5 | 3.56 | 8.56 | 7.06 | 54 | 1005.8 |
| 20260505174504 | 8 | 234 | 4.8 | 14.5 | 3.56 | 8.53 | 7.04 | 54 | 1005.9 |
| 20260505174004 | 8 | 234 | 3.2 | 8.0 | 3.61 | 8.56 | 7.01 | 53 | 1005.9 |
| 20260505173504 | 9 | 226 | 1.6 | 9.7 | 3.61 | 8.56 | 6.99 | 52 | 1005.8 |
| 20260505173005 | 9 | 217 | 4.8 | 11.3 | 3.56 | 8.56 | 6.96 | 51 | 1005.9 |
| 20260505172504 | 9 | 227 | 3.2 | 11.3 | 3.56 | 8.56 | 6.91 | 51 | 1005.9 |
| 20260505172006 | 9 | 204 | 3.2 | 11.3 | 3.56 | 8.56 | 6.88 | 50 | 1005.9 |
| 20260505171504 | 9 | 228 | 3.2 | 14.5 | 3.56 | 8.56 | 6.86 | 50 | 1005.9 |
| 20260505171005 | 9 | 224 | 3.2 | 14.5 | 3.56 | 8.53 | 6.83 | 50 | 1005.9 |
| 20260505170504 | 9 | 211 | 1.6 | 9.7 | 3.61 | 8.56 | 6.81 | 49 | 1005.9 |
| 20260505170004 | 9 | 247 | 3.2 | 11.3 | 3.61 | 8.56 | 6.78 | 48 | 1005.8 |
| 20260505165504 | 9 | 278 | 4.8 | 11.3 | 3.56 | 8.56 | 6.73 | 47 | 1005.9 |
| 20260505164504 | 9 | 245 | 3.2 | 11.3 | 3.56 | 8.56 | 6.68 | 47 | 1005.8 |
| 20260505164004 | 10 | 235 | 3.2 | 11.3 | 3.56 | 8.53 | 6.65 | 48 | 1005.8 |
| 20260505163505 | 10 | 252 | 3.2 | 9.7 | 3.56 | 8.53 | 6.63 | 47 | 1005.8 |
| 20260505163004 | 10 | 242 | 3.2 | 19.3 | 3.61 | 8.56 | 6.60 | 45 | 1005.9 |
| 20260505162504 | 10 | 243 | 4.8 | 19.3 | 3.61 | 8.56 | 6.55 | 44 | 1005.8 |
| 20260505162005 | 10 | 257 | 1.6 | 9.7 | 3.56 | 8.56 | 6.53 | 45 | 1005.7 |
| 20260505161504 | 10 | 254 | 1.6 | 9.7 | 3.56 | 8.56 | 6.50 | 43 | 1005.6 |
| 20260505161004 | 10 | 238 | 3.2 | 14.5 | 3.56 | 8.56 | 6.48 | 43 | 1005.7 |
| 20260505153004 | 11 | 253 | 3.2 | 12.9 | 3.56 | 8.56 | 6.22 | 37 | 1005.5 |
| 20260505152504 | 11 | 218 | 4.8 | 16.1 | 3.56 | 8.53 | 6.20 | 37 | 1005.5 |
| 20260505152004 | 11 | 241 | 4.8 | 16.1 | 3.61 | 8.56 | 6.17 | 36 | 1005.5 |
| 20260505151504 | 12 | 224 | 4.8 | 19.3 | 3.56 | 8.56 | 6.15 | 36 | 1005.3 |
| 20260505151004 | 12 | 258 | 8.0 | 19.3 | 3.56 | 8.56 | 6.12 | 36 | 1005.2 |
| 20260505150504 | 11 | 248 | 1.6 | 14.5 | 3.56 | 8.56 | 6.10 | 37 | 1005.2 |
| 20260505124504 | 11 | 281 | 3.2 | 11.3 | 3.56 | 8.56 | 5.26 | 30 | 1005.2 |
| 20260505124004 | 11 | 237 | 4.8 | 12.9 | 3.56 | 8.53 | 5.23 | 28 | 1005.2 |
| 20260505123503 | 11 | 254 | 3.2 | 12.9 | 3.56 | 8.53 | 5.18 | 29 | 1005.3 |
| 20260505123004 | 11 | 251 | 3.2 | 9.7 | 3.61 | 8.56 | 5.16 | 28 | 1005.4 |
| 20260505122006 | 11 | 321 | 4.8 | 11.3 | 3.56 | 8.56 | 5.11 | 29 | 1005.3 |
| 20260505121503 | 11 | 318 | 4.8 | 11.3 | 3.56 | 8.56 | 5.08 | 32 | 1005.3 |
| 20260505121004 | 11 | 269 | 3.2 | 11.3 | 3.56 | 8.56 | 5.05 | 31 | 1005.3 |
| 20260505120503 | 11 | 281 | 4.8 | 9.7 | 3.56 | 8.53 | 5.00 | 29 | 1005.3 |
| 20260505120005 | 11 | 281 | 3.2 | 11.3 | 3.61 | 8.56 | 4.98 | 29 | 1005.4 |
| 20260505115503 | 11 | 286 | 4.8 | 11.3 | 3.61 | 8.56 | 4.95 | 30 | 1005.5 |
| 20260505114504 | 11 | 255 | 4.8 | 12.9 | 3.56 | 8.56 | 4.90 | 30 | 1005.4 |
| 20260505114004 | 11 | 235 | 4.8 | 11.3 | 3.56 | 8.56 | 4.88 | 30 | 1005.4 |
| 20260505113504 | 11 | 6 | 3.2 | 11.3 | 3.56 | 8.56 | 4.83 | 29 | 1005.5 |
| 20260505113004 | 11 | 297 | 4.8 | 11.3 | 3.56 | 8.53 | 4.80 | 33 | 1005.6 |
| 20260505112504 | 11 | 302 | 3.2 | 8.0 | 3.61 | 8.56 | 4.78 | 32 | 1005.6 |
| 20260505112006 | 11 | 284 | 4.8 | 8.0 | 3.61 | 8.56 | 4.75 | 33 | 1005.6 |
| 20260505111004 | 11 | 285 | 3.2 | 9.7 | 3.56 | 8.56 | 4.70 | 32 | 1005.6 |
| 20260505102005 | 10 | 311 | 4.8 | 12.9 | 3.56 | 8.53 | 4.39 | 35 | 1005.6 |
| 20260505101005 | 10 | 270 | 4.8 | 11.3 | 3.56 | 8.56 | 4.34 | 37 | 1005.6 |
| 20260505100005 | 9 | 238 | 3.2 | 4.8 | 3.56 | 8.56 | 4.27 | 37 | 1005.7 |
| 20260505095505 | 9 | 305 | 3.2 | 9.7 | 3.56 | 8.56 | 4.24 | 34 | 1005.7 |
| 20260505095006 | 9 | 320 | 3.2 | 9.7 | 3.56 | 8.56 | 4.22 | 35 | 1005.7 |
| 20260505094004 | 9 | 326 | 4.8 | 9.7 | 3.61 | 8.56 | 4.17 | 38 | 1005.6 |
| 20260505093505 | 9 | 299 | 3.2 | 14.5 | 3.56 | 8.56 | 4.11 | 36 | 1005.6 |
| 20260505093005 | 9 | 321 | 4.8 | 14.5 | 3.56 | 8.56 | 4.09 | 38 | 1005.6 |
| 20260505092505 | 8 | 252 | 3.2 | 9.7 | 3.56 | 8.56 | 4.06 | 39 | 1005.6 |
| 20260505092006 | 8 | 35 | 3.2 | 9.7 | 3.56 | 8.56 | 4.04 | 37 | 1005.6 |
| 20260505091505 | 8 | 19 | 3.2 | 9.7 | 3.56 | 8.56 | 4.01 | 37 | 1005.7 |
| 20260505085505 | 8 | 223 | 1.6 | 11.3 | 3.56 | 8.56 | 3.89 | 43 | 1005.6 |
| 20260505085005 | 7 | 11 | 1.6 | 8.0 | 3.56 | 8.56 | 3.86 | 42 | 1005.6 |
| 20260505084505 | 8 | 269 | 1.6 | 8.0 | 3.56 | 8.56 | 3.84 | 42 | 1005.7 |
| 20260505084005 | 8 | 22 | 3.2 | 8.0 | 3.56 | 8.53 | 3.78 | 41 | 1005.6 |
| 20260505083505 | 8 | 301 | 3.2 | 8.0 | 3.61 | 8.56 | 3.76 | 42 | 1005.5 |
| 20260505083006 | 8 | 346 | 3.2 | 11.3 | 3.61 | 8.56 | 3.73 | 42 | 1005.4 |
| 20260505082504 | 8 | 193 | 3.2 | 11.3 | 3.56 | 8.56 | 3.71 | 42 | 1005.4 |
| 20260505082006 | 7 | 224 | 3.2 | 8.0 | 3.56 | 8.56 | 3.68 | 42 | 1005.4 |
| 20260505081005 | 7 | 24 | 3.2 | 9.7 | 3.56 | 8.56 | 3.61 | 43 | 1005.4 |
| 20260505080504 | 7 | 286 | 3.2 | 4.8 | 3.56 | 8.53 | 3.58 | 43 | 1005.4 |
| 20260505080005 | 7 | 22 | 3.2 | 9.7 | 3.61 | 8.56 | 3.56 | 44 | 1005.4 |
| 20260505075505 | 7 | 334 | 4.8 | 9.7 | 3.61 | 8.56 | 3.53 | 42 | 1005.3 |
| 20260505075005 | 7 | 21 | 1.6 | 4.8 | 3.56 | 8.56 | 3.51 | 43 | 1005.2 |
| 20260505074506 | 7 | 24 | 1.6 | 9.7 | 3.56 | 8.56 | 3.48 | 44 | 1005.2 |
| 20260505074005 | 7 | 32 | 3.2 | 9.7 | 3.56 | 8.56 | 3.43 | 45 | 1005.2 |
| 20260505073505 | 7 | 344 | 3.2 | 9.7 | 3.56 | 8.56 | 3.40 | 46 | 1005.1 |
| 20260505073005 | 6 | 323 | 3.2 | 8.0 | 3.56 | 8.53 | 3.38 | 45 | 1005.0 |
| 20260505072504 | 6 | 16 | 3.2 | 8.0 | 3.61 | 8.56 | 3.35 | 45 | 1005.0 |
| 20260505072006 | 6 | 18 | 1.6 | 8.0 | 3.61 | 8.56 | 3.33 | 44 | 1005.0 |
| 20260505071005 | 6 | 11 | 3.2 | 4.8 | 3.56 | 8.56 | 3.25 | 46 | 1004.9 |
| 20260505070006 | 6 | 355 | 3.2 | 4.8 | 3.56 | 8.56 | 3.20 | 48 | 1004.9 |
| 20260505065505 | 6 | 3 | 3.2 | 4.8 | 3.56 | 8.53 | 3.17 | 49 | 1004.9 |
| 20260505065005 | 6 | 291 | 1.6 | 8.0 | 3.61 | 8.56 | 3.15 | 49 | 1005.0 |
| 20260505064505 | 6 | 13 | 3.2 | 8.0 | 3.61 | 8.56 | 3.12 | 50 | 1005.0 |
| 20260505064005 | 6 | 309 | 3.2 | 4.8 | 3.56 | 8.56 | 3.07 | 51 | 1004.8 |
| 20260505063504 | 5 | 302 | 1.6 | 4.8 | 3.56 | 8.56 | 3.05 | 53 | 1004.9 |
| 20260505063007 | 5 | 333 | 3.2 | 9.7 | 3.56 | 8.56 | 3.02 | 52 | 1005.0 |
| 20260505062505 | 5 | 331 | 3.2 | 9.7 | 3.56 | 8.56 | 3.00 | 53 | 1005.0 |
| 20260505062004 | 5 | 307 | 3.2 | 4.8 | 3.56 | 8.53 | 2.97 | 53 | 1004.9 |
| 20260505061505 | 5 | 1 | 3.2 | 4.8 | 3.61 | 8.56 | 2.95 | 54 | 1004.9 |
| 20260505061005 | 5 | 10 | 1.6 | 4.8 | 3.56 | 8.56 | 2.90 | 54 | 1004.9 |
| 20260505060505 | 4 | 345 | 3.2 | 8.0 | 3.56 | 8.56 | 2.87 | 55 | 1004.9 |
| 20260505055505 | 3 | 324 | 3.2 | 8.0 | 3.66 | 8.56 | 2.82 | 58 | 1004.9 |
| 20260505055005 | 3 | 13 | 3.2 | 4.8 | 3.56 | 8.53 | 2.79 | 58 | 1004.9 |
| 20260505054506 | 3 | 20 | 3.2 | 8.0 | 3.56 | 8.53 | 2.74 | 59 | 1004.9 |
| 20260505052504 | 2 | 23 | 1.6 | 4.8 | 3.56 | 8.56 | 2.64 | 66 | 1004.9 |
| 20260505052005 | 2 | 39 | 1.6 | 4.8 | 3.56 | 8.56 | 2.62 | 68 | 1004.8 |
| 20260505051505 | 1 | 280 | 1.6 | 4.8 | 3.56 | 8.53 | 2.57 | 69 | 1004.8 |
| 20260505051004 | 1 | 295 | 1.6 | 4.8 | 3.61 | 8.56 | 2.54 | 71 | 1004.7 |
| 20260505050505 | 1 | 288 | 0.0 | 4.8 | 3.61 | 8.56 | 25.30 | 73 | 1004.8 |
| 20260505041505 | -1 | 289 | 0.0 | 1.6 | 3.56 | 8.56 | 22.30 | 75 | 1004.3 |
| 20260505041005 | -1 | 295 | 0.0 | 1.6 | 3.56 | 8.56 | 22.00 | 75 | 1004.3 |
| 20260505040505 | -1 | 294 | 0.0 | 1.6 | 3.56 | 8.53 | 21.69 | 75 | 1004.2 |
| 20260505040006 | 0 | 305 | 0.0 | 1.6 | 3.61 | 8.56 | 21.44 | 74 | 1004.2 |
| 20260505035504 | 0 | 291 | 0.0 | 1.6 | 3.61 | 8.56 | 21.13 | 74 | 1004.1 |
| 20260505035005 | 0 | 298 | 0.0 | 1.6 | 3.56 | 8.56 | 20.83 | 73 | 1004.1 |
| 20260505034506 | 0 | 300 | 0.0 | 1.6 | 3.56 | 8.56 | 20.52 | 73 | 1004.0 |
| 20260505034005 | 0 | 293 | 0.0 | 1.6 | 3.56 | 8.56 | 20.22 | 73 | 1004.0 |
| 20260505033504 | 0 | 291 | 0.0 | 1.6 | 3.56 | 8.56 | 19.91 | 73 | 1003.9 |
| 20260505033006 | 0 | 296 | 0.0 | 1.6 | 3.56 | 8.53 | 19.61 | 73 | 1003.9 |
| 20260505032004 | 0 | 293 | 0.0 | 1.6 | 3.61 | 8.56 | 19.05 | 72 | 1004.0 |
| 20260505031504 | 0 | 292 | 0.0 | 1.6 | 3.56 | 8.56 | 18.75 | 72 | 1004.0 |
| 20260505031005 | 0 | 304 | 0.0 | 1.6 | 3.56 | 8.56 | 18.44 | 72 | 1003.9 |
| 20260505030505 | 0 | 307 | 0.0 | 1.6 | 3.56 | 8.56 | 18.14 | 72 | 1003.9 |
| 20260505030005 | 0 | 296 | 0.0 | 1.6 | 3.56 | 8.56 | 17.83 | 72 | 1003.9 |
| 20260505025505 | 0 | 287 | 0.0 | 1.6 | 3.56 | 8.53 | 17.53 | 72 | 1003.9 |
| 20260505025005 | 0 | 297 | 0.0 | 1.6 | 3.61 | 8.56 | 17.27 | 72 | 1003.8 |
| 20260505024505 | 0 | 293 | 0.0 | 1.6 | 3.61 | 8.56 | 16.97 | 72 | 1003.7 |
| 20260505024005 | 0 | 302 | 0.0 | 1.6 | 3.56 | 8.56 | 16.66 | 72 | 1003.7 |
| 20260505023505 | 0 | 290 | 0.0 | 3.2 | 3.56 | 8.56 | 16.36 | 71 | 1003.7 |
| 20260505023005 | 0 | 298 | 1.6 | 3.2 | 3.56 | 8.56 | 16.05 | 71 | 1003.7 |
| 20260505022004 | 1 | 298 | 0.0 | 1.6 | 3.56 | 8.53 | 15.44 | 69 | 1003.7 |
| 20260505021005 | 1 | 299 | 0.0 | 1.6 | 3.61 | 8.56 | 14.88 | 69 | 1003.5 |
| 20260505020504 | 1 | 294 | 0.0 | 1.6 | 3.56 | 8.56 | 14.58 | 68 | 1003.4 |
| 20260505020005 | 1 | 292 | 0.0 | 1.6 | 3.56 | 8.56 | 14.27 | 68 | 1003.4 |
| 20260505015505 | 1 | 299 | 0.0 | 1.6 | 3.56 | 8.56 | 13.97 | 68 | 1003.3 |
| 20260505015005 | 1 | 298 | 0.0 | 1.6 | 3.56 | 8.56 | 13.67 | 68 | 1003.3 |
| 20260505014505 | 1 | 345 | 0.0 | 3.2 | 3.56 | 8.53 | 13.36 | 68 | 1003.1 |
| 20260505014005 | 1 | 291 | 0.0 | 3.2 | 3.61 | 8.56 | 13.11 | 67 | 1003.1 |
| 20260505013506 | 1 | 296 | 1.6 | 4.8 | 3.56 | 8.56 | 12.80 | 68 | 1003.0 |
| 20260505012505 | 2 | 280 | 1.6 | 4.8 | 3.56 | 8.56 | 12.19 | 67 | 1003.0 |
| 20260505012005 | 2 | 277 | 1.6 | 4.8 | 3.56 | 8.56 | 11.89 | 68 | 1003.0 |
| 20260505011506 | 2 | 281 | 0.0 | 3.2 | 3.56 | 8.53 | 11.58 | 67 | 1003.0 |
| 20260505011004 | 2 | 297 | 0.0 | 3.2 | 3.56 | 8.53 | 11.28 | 67 | 1002.9 |
| 20260505010006 | 2 | 260 | 1.6 | 4.8 | 3.56 | 8.56 | 10.72 | 67 | 1002.9 |
| 20260505005505 | 2 | 248 | 1.6 | 4.8 | 3.56 | 8.56 | 10.41 | 66 | 1002.8 |